Weather History for Buffalo, WY

Change the Weather History Date:

Thursday, January 24, 2013

  Actual Average Record
Temperature  
Mean Temperature 41 °F 28 °F  
Max Temperature 56 °F 38 °F 64 °F (1968)
Min Temperature 25 °F 17 °F -1 °F (2009)
Degree Days  
Heating Degree Days 24 37  
Month to date heating degree days 867 894  
Since 1 July heating degree days 3592 3941  
Cooling Degree Days 0 0  
Month to date cooling degree days 0 0  
Year to date cooling degree days 0 0  
Moisture  
Dew Point 16 °F    
Average Humidity 47    
Maximum Humidity 75    
Minimum Humidity 19    
Precipitation  
Precipitation 0.00 in 0.02 in 0.01 in (2010)
Month to date precipitation 0.09 0.31  
Year to date precipitation 0.09 0.31  
Sea Level Pressure  
Sea Level Pressure 29.96 in    
Wind  
Wind Speed 4 mph (WSW)    
Max Wind Speed 24 mph    
Max Gust Speed 28 mph    
Visibility 10 miles    
Events      
T = Trace of Precipitation, MM = Missing Value Source: NWS Daily Summary

Daily Weather History Graph

Daily Weather History Graph

Search for Another Location

Airport:

Trip Planner

Search our weather history database for the weather conditions in past years. The results will help you decide how hot, cold, wet, or windy it might be!

Date:

Astronomy

Jan. 24, 2013 Rise Set
Actual Time 7:32 AM MST 5:05 PM MST
Civil Twilight 7:01 AM MST 5:37 PM MST
Nautical Twilight 6:26 AM MST 6:12 PM MST
Astronomical Twilight 5:51 AM MST 6:46 PM MST
Moon 3:09 PM MST 5:34 AM MST
Length of Visible Light 10h 35m
Length of Day
9h 32m
Waxing Gibbous, 95% of the Moon is Illuminated
Jan 24
Waxing Gibbous
Jan 26
Full
Feb 3
Last Quarter
Feb 10
New
Feb 17
First Quarter

Hourly Weather History & Observations

Time (MST) Temp. Windchill Dew Point Humidity Pressure Visibility Wind Dir Wind Speed Gust Speed Precip Events Conditions
12:53 AM 41.0 °F 37.1 °F 12.0 °F 31% 29.91 in 10.0 mi West 5.8 mph - N/A   Clear
1:53 AM 46.9 °F - 7.0 °F 20% 29.88 in 10.0 mi Calm Calm - N/A   Clear
2:53 AM 44.1 °F 42.5 °F 10.9 °F 26% 29.89 in 10.0 mi SSW 3.5 mph - N/A   Clear
3:53 AM 39.9 °F 35.1 °F 12.9 °F 33% 29.90 in 10.0 mi West 6.9 mph - N/A   Clear
4:53 AM 48.0 °F - 9.0 °F 21% 29.87 in 10.0 mi West 12.7 mph - N/A   Clear
5:53 AM 52.0 °F - 10.0 °F 19% 29.86 in 10.0 mi Calm Calm - N/A   Clear
6:53 AM 53.1 °F - 14.0 °F 21% 29.84 in 10.0 mi SW 10.4 mph - N/A   Clear
7:53 AM 48.9 °F - 10.9 °F 22% 29.88 in 10.0 mi Calm Calm - N/A   Clear
8:53 AM 48.0 °F - 10.9 °F 22% 29.88 in 10.0 mi Calm Calm - N/A   Clear
9:53 AM 46.9 °F - 12.9 °F 25% 29.90 in 10.0 mi North - - N/A   Clear
10:53 AM 43.0 °F 41.3 °F 15.1 °F 32% 29.93 in 10.0 mi SSE 3.5 mph - N/A   Clear
11:53 AM 46.9 °F - 14.0 °F 27% 29.91 in 10.0 mi SE 3.5 mph - N/A   Clear
12:53 PM 46.0 °F 44.8 °F 16.0 °F 30% 29.88 in 10.0 mi ESE 3.5 mph - N/A   Clear
1:53 PM 45.0 °F - 18.0 °F 34% 29.90 in 10.0 mi Calm Calm - N/A   Mostly Cloudy
2:53 PM 45.0 °F 43.5 °F 18.0 °F 34% 29.93 in 10.0 mi Variable 3.5 mph - N/A   Clear
3:53 PM 41.0 °F 38.0 °F 23.0 °F 49% 30.00 in 10.0 mi NW 4.6 mph - N/A   Mostly Cloudy
4:53 PM 41.0 °F 38.0 °F 21.9 °F 47% 29.99 in 10.0 mi North 4.6 mph - N/A   Clear
5:53 PM 39.0 °F 34.8 °F 21.0 °F 49% 30.01 in 10.0 mi NW 5.8 mph - N/A   Clear
6:53 PM 30.9 °F 25.2 °F 21.0 °F 67% 30.06 in 10.0 mi West 5.8 mph - N/A   Clear
7:53 PM 32.0 °F 24.2 °F 21.0 °F 64% 30.08 in 10.0 mi NW 9.2 mph - N/A   Clear
8:53 PM 34.0 °F - 21.9 °F 61% 30.09 in 10.0 mi Calm Calm - N/A   Clear
9:53 PM 27.0 °F 23.0 °F 19.0 °F 72% 30.12 in 10.0 mi West 3.5 mph - N/A   Clear
10:53 PM 28.9 °F 25.2 °F 19.9 °F 69% 30.14 in 10.0 mi SW 3.5 mph - N/A   Clear
11:53 PM 26.1 °F 21.9 °F 18.0 °F 71% 30.13 in 10.0 mi WSW 3.5 mph - N/A   Clear